STARLINK-32358, 61531

Orbit data source: Space-Track

STARLINK-32358, 61531 is a payload satellite owned by SpaceX/Seattle (US) in LEO that was launched on Tue, 15 Oct 2024 UTC via an FALCON 9 launch vehicle from the Air Force Eastern Test Range (AFETR). Payload-class satellites include a variety of spacecraft equipped with specific instruments for various scientific and technological missions. These include communications satellites like Starlink; space stations such as the ISS; scientific satellites like the Hubble; Earth observation satellites from companies like Planet Labs, Umbra, and HawkEye 360; GPS; miniature CubeSats for education and research; and military/defense satellites.

Loading next visibility...
Identifier
61531, 2024-183Y
Orbit
LEO
Country
Flag of USUS
Related business
Manufacturer
SpaceX/Seattle
Mission
Operational Commercial Communications
Bus & Motor
STARLINK V2M, Unknown motor
Mass
730 kg wet, ~700 kg dry
Launch date (UTC)
2024-10-15 (1 year ago)
Launch vehicle
FALCON 9
Launch site
Air Force Eastern Test Range (AFETR)
Object type
Payload
Rocket body
Debris
Shape & HBR
Box + 2 Pan, 17.7 m
Radar Cross Section
33.884 m², Large (>1 m²)

Expand to show TLE details & history
Last TLE update: 1 day ago

TLE from 1 day ago
0 STARLINK-32358
1 61531U 24183Y   25348.78598186  .00000668  00000-0  34693-4 0  9997
2 61531  53.1593 176.7971 0001386  93.6267 266.4892 15.30178064 66658
Epoch: 2025-12-14T18:51Z
TLE epoch observation values (Epoch: 2025-12-14T18:51:48.832Z)
Latitude
-0.00006°
Longitude
170.14969°
Altitude
476.238 km
Speed
7.629 km/s
True Right ascension
11h 47m 11s
True Declination
0° 00' 00"
Sunlit
Object was in daylight at epoch
Visualization orbit readout
Latitude
Unknown
Longitude
Unknown
Altitude
Unknown
Speed
Unknown
Apparent Right ascension
Unknown
Apparent Declination
Unknown
Sunlit
N/A
Visualization observer readout
Local Sidereal Time
18:10:35
Azimuth
Unknown
Elevation
Unknown
Doppler factor
Unknown
Orbital elements
Apogee altitude
476.487 km
Perigee altitude
474.587 km
Semi-major axis
6,853.674 km
Eccentricity
0.00014
Inclination
53.1593°
RAAN
176.7971°
Arg. of periapsis
93.6267°
True anomaly
266.47335°
Mean anomaly
266.4892°
Eccentric anomaly
266.48127°
Mean motion
3.82523 °/min
Orbital period
94.11 mins
BSTAR
0.000034693
Loading maneuver chart data...
Computing Atmospheric mass density...
Loading historical data...
Loading historical data...
Loading historical data...
Loading historical data...
Loading historical data...
Loading historical data...
Loading historical data...

Documentation

Showing up to 5 results
|